Time,TemperatureF,DewpointF,PressureIn,WindDirection,WindDirectionDegrees,WindSpeedMPH,WindSpeedGustMPH,Humidity,HourlyPrecipIn,Conditions,Clouds,dailyrainin,SolarRadiationWatts/m^2,SoftwareType,DateUTC
2013-02-20 00:02:00,69.6,26.8,-100.00,SW,236,0.0,7.0,20,0.00,,,0.02,0.0,meteohub,2013-02-20 05:02:00,
2013-02-20 00:07:00,69.4,26.6,-100.00,WSW,252,5.0,7.0,20,0.00,,,0.02,0.0,meteohub,2013-02-20 05:07:00,
2013-02-20 00:12:00,69.3,26.4,-100.00,WSW,241,1.0,7.0,20,0.00,,,0.02,0.0,meteohub,2013-02-20 05:12:00,
2013-02-20 00:17:00,69.3,26.4,-100.00,SSW,209,4.0,7.0,20,0.00,,,0.02,0.0,meteohub,2013-02-20 05:17:00,
2013-02-20 00:22:00,69.4,26.6,-100.00,SW,215,4.0,7.0,20,0.00,,,0.02,0.0,meteohub,2013-02-20 05:22:00,
2013-02-20 00:27:00,69.3,26.4,-100.00,SW,220,3.0,7.0,20,0.00,,,0.02,0.0,meteohub,2013-02-20 05:27:00,
2013-02-20 00:32:00,69.4,26.6,-100.00,SW,215,3.0,7.0,20,0.00,,,0.02,0.0,meteohub,2013-02-20 05:32:00,
2013-02-20 00:37:00,69.4,26.6,-100.00,SW,214,1.0,7.0,20,0.00,,,0.02,0.0,meteohub,2013-02-20 05:37:00,
2013-02-20 00:42:00,69.4,26.6,-100.00,SW,214,0.0,7.0,20,0.00,,,0.02,0.0,meteohub,2013-02-20 05:42:00,
2013-02-20 00:47:00,69.3,26.4,-100.00,SW,214,1.0,7.0,20,0.00,,,0.02,0.0,meteohub,2013-02-20 05:47:00,
2013-02-20 00:52:00,69.3,26.4,-100.00,SW,214,2.0,7.0,20,0.00,,,0.02,0.0,meteohub,2013-02-20 05:52:00,
2013-02-20 00:57:00,69.3,26.4,-100.00,SW,215,0.0,7.0,20,0.00,,,0.02,0.0,meteohub,2013-02-20 05:57:00,
2013-02-20 01:02:00,69.3,26.4,-100.00,SW,215,0.0,4.0,20,0.00,,,0.02,0.0,meteohub,2013-02-20 06:02:00,
2013-02-20 01:07:00,69.1,26.2,-100.00,SW,215,0.0,4.0,20,0.00,,,0.02,0.0,meteohub,2013-02-20 06:07:00,
2013-02-20 01:12:00,69.1,26.2,-100.00,SW,214,0.0,4.0,20,0.00,,,0.02,0.0,meteohub,2013-02-20 06:12:00,
2013-02-20 01:17:00,69.1,26.2,-100.00,SW,215,0.0,4.0,20,0.00,,,0.02,0.0,meteohub,2013-02-20 06:17:00,
2013-02-20 01:22:00,68.9,26.2,-100.00,SW,215,0.0,4.0,20,0.00,,,0.02,0.0,meteohub,2013-02-20 06:22:00,
2013-02-20 01:27:00,68.9,26.2,-100.00,SW,214,1.0,4.0,20,0.00,,,0.02,0.0,meteohub,2013-02-20 06:27:00,
2013-02-20 01:37:00,68.7,26.1,-100.00,SW,215,0.0,2.0,20,0.00,,,0.02,0.0,meteohub,2013-02-20 06:37:00,
2013-02-20 01:42:00,68.5,25.9,-100.00,SW,215,1.0,2.0,20,0.00,,,0.02,0.0,meteohub,2013-02-20 06:42:00,
2013-02-20 01:47:00,68.5,27.1,-100.00,SW,214,0.0,2.0,21,0.00,,,0.02,0.0,meteohub,2013-02-20 06:47:00,
2013-02-20 01:52:00,68.5,27.1,-100.00,SW,215,1.0,2.0,21,0.00,,,0.02,0.0,meteohub,2013-02-20 06:52:00,
2013-02-20 01:57:00,68.4,27.0,-100.00,SW,215,0.0,2.0,21,0.00,,,0.02,0.0,meteohub,2013-02-20 06:57:00,
2013-02-20 02:02:00,68.4,27.0,-100.00,SW,214,0.0,2.0,21,0.00,,,0.02,0.0,meteohub,2013-02-20 07:02:00,
2013-02-20 02:07:00,68.2,26.8,-100.00,SW,214,0.0,2.0,21,0.00,,,0.02,0.0,meteohub,2013-02-20 07:07:00,
2013-02-20 02:12:00,68.2,25.5,-100.00,SW,215,0.0,2.0,20,0.00,,,0.02,0.0,meteohub,2013-02-20 07:12:00,
2013-02-20 02:17:00,68.0,26.6,-100.00,SW,215,0.0,1.0,21,0.00,,,0.02,0.0,meteohub,2013-02-20 07:17:00,
2013-02-20 02:22:00,67.8,26.4,-100.00,SW,215,0.0,1.0,21,0.00,,,0.02,0.0,meteohub,2013-02-20 07:22:00,
2013-02-20 02:27:00,67.8,26.4,-100.00,SW,214,0.0,1.0,21,0.00,,,0.02,0.0,meteohub,2013-02-20 07:27:00,
2013-02-20 02:32:00,67.6,26.2,-100.00,SW,215,0.0,1.0,21,0.00,,,0.02,0.0,meteohub,2013-02-20 07:32:00,
2013-02-20 02:37:00,67.5,26.2,-100.00,SW,215,0.0,1.0,21,0.00,,,0.02,0.0,meteohub,2013-02-20 07:37:00,
2013-02-20 02:42:00,67.3,26.1,-100.00,SW,215,0.0,3.0,21,0.00,,,0.02,0.0,meteohub,2013-02-20 07:42:00,
2013-02-20 02:47:00,67.3,26.1,-100.00,SW,215,0.0,3.0,21,0.00,,,0.02,0.0,meteohub,2013-02-20 07:47:00,
2013-02-20 02:52:00,66.9,25.7,-100.00,SW,215,1.0,3.0,21,0.00,,,0.02,0.0,meteohub,2013-02-20 07:52:00,
2013-02-20 02:57:00,66.9,25.7,-100.00,SW,215,0.0,3.0,21,0.00,,,0.02,0.0,meteohub,2013-02-20 07:57:00,
2013-02-20 03:05:00,66.9,25.7,-100.00,SW,214,0.0,3.0,21,0.00,,,0.02,0.0,meteohub,2013-02-20 08:05:00,
2013-02-20 03:12:00,67.1,25.9,-100.00,SW,215,1.0,3.0,21,0.00,,,0.02,0.0,meteohub,2013-02-20 08:12:00,
2013-02-20 03:17:00,67.1,25.9,-100.00,SW,215,1.0,3.0,21,0.00,,,0.02,0.0,meteohub,2013-02-20 08:17:00,
2013-02-20 03:22:00,67.1,25.9,-100.00,SW,214,0.0,3.0,21,0.00,,,0.02,0.0,meteohub,2013-02-20 08:22:00,
2013-02-20 03:27:00,67.1,25.9,-100.00,SW,215,0.0,3.0,21,0.00,,,0.02,0.0,meteohub,2013-02-20 08:27:00,
2013-02-20 03:32:00,66.9,25.7,-100.00,SW,215,0.0,3.0,21,0.00,,,0.02,0.0,meteohub,2013-02-20 08:32:00,
2013-02-20 03:37:00,66.9,25.7,-100.00,SW,215,0.0,3.0,21,0.00,,,0.02,0.0,meteohub,2013-02-20 08:37:00,
2013-02-20 03:42:00,66.7,25.5,-100.00,SW,215,0.0,3.0,21,0.00,,,0.02,0.0,meteohub,2013-02-20 08:42:00,
2013-02-20 03:47:00,66.7,25.5,-100.00,SW,214,1.0,3.0,21,0.00,,,0.02,0.0,meteohub,2013-02-20 08:47:00,
2013-02-20 03:52:00,66.6,25.3,-100.00,SW,215,0.0,3.0,21,0.00,,,0.02,0.0,meteohub,2013-02-20 08:52:00,
2013-02-20 03:57:00,66.4,25.3,-100.00,SW,215,0.0,2.0,21,0.00,,,0.02,0.0,meteohub,2013-02-20 08:57:00,
2013-02-20 04:02:00,66.4,25.3,-100.00,SW,215,0.0,2.0,21,0.00,,,0.02,0.0,meteohub,2013-02-20 09:02:00,
2013-02-20 04:07:00,66.4,25.3,-100.00,SW,215,0.0,2.0,21,0.00,,,0.02,0.0,meteohub,2013-02-20 09:07:00,
2013-02-20 04:12:00,66.2,26.2,-100.00,SW,214,1.0,2.0,22,0.00,,,0.02,0.0,meteohub,2013-02-20 09:12:00,
2013-02-20 04:17:00,66.2,26.2,-100.00,SW,214,0.0,2.0,22,0.00,,,0.02,0.0,meteohub,2013-02-20 09:17:00,
2013-02-20 04:22:00,66.0,26.1,-100.00,SW,214,0.0,3.0,22,0.00,,,0.02,0.0,meteohub,2013-02-20 09:22:00,
2013-02-20 04:27:00,65.8,25.9,-100.00,SW,215,0.0,3.0,22,0.00,,,0.02,0.0,meteohub,2013-02-20 09:27:00,
2013-02-20 04:32:00,65.8,25.9,-100.00,SW,215,0.0,3.0,22,0.00,,,0.02,0.0,meteohub,2013-02-20 09:32:00,
2013-02-20 04:37:00,65.7,25.7,-100.00,SW,215,0.0,3.0,22,0.00,,,0.02,0.0,meteohub,2013-02-20 09:37:00,
2013-02-20 04:42:00,65.3,25.5,-100.00,SW,215,0.0,0.0,22,0.00,,,0.02,0.0,meteohub,2013-02-20 09:42:00,
2013-02-20 04:47:00,64.9,25.2,-100.00,SW,215,0.0,0.0,22,0.00,,,0.02,0.0,meteohub,2013-02-20 09:47:00,
2013-02-20 04:52:00,64.8,25.0,-100.00,SW,214,0.0,0.0,22,0.00,,,0.02,0.0,meteohub,2013-02-20 09:52:00,
2013-02-20 04:57:00,64.6,24.8,-100.00,SW,214,0.0,0.0,22,0.00,,,0.02,0.0,meteohub,2013-02-20 09:57:00,
2013-02-20 05:02:00,64.2,24.6,-100.00,SW,215,0.0,0.0,22,0.00,,,0.02,0.0,meteohub,2013-02-20 10:02:00,
2013-02-20 05:07:00,64.2,24.6,-100.00,SW,215,0.0,0.0,22,0.00,,,0.02,0.0,meteohub,2013-02-20 10:07:00,
2013-02-20 05:12:00,64.4,24.8,-100.00,SW,214,2.0,0.0,22,0.00,,,0.02,0.0,meteohub,2013-02-20 10:12:00,
2013-02-20 05:17:00,64.6,24.8,-100.00,SW,214,0.0,0.0,22,0.00,,,0.02,0.0,meteohub,2013-02-20 10:17:00,
2013-02-20 05:22:00,64.8,25.0,-100.00,SW,215,1.0,0.0,22,0.00,,,0.02,0.0,meteohub,2013-02-20 10:22:00,
2013-02-20 05:27:00,64.8,25.0,-100.00,SW,214,0.0,0.0,22,0.00,,,0.02,0.0,meteohub,2013-02-20 10:27:00,
2013-02-20 05:32:00,64.9,25.2,-100.00,SW,215,0.0,0.0,22,0.00,,,0.02,0.0,meteohub,2013-02-20 10:32:00,
2013-02-20 05:37:00,64.9,25.2,-100.00,SW,219,2.0,3.0,22,0.00,,,0.02,0.0,meteohub,2013-02-20 10:37:00,
2013-02-20 05:42:00,64.9,25.2,-100.00,SW,219,2.0,3.0,22,0.00,,,0.02,0.0,meteohub,2013-02-20 10:42:00,
2013-02-20 05:47:00,65.1,25.3,-100.00,WSW,245,3.0,3.0,22,0.00,,,0.02,0.0,meteohub,2013-02-20 10:47:00,
2013-02-20 05:52:00,65.1,25.3,-100.00,West,264,2.0,3.0,22,0.00,,,0.02,0.0,meteohub,2013-02-20 10:52:00,
2013-02-20 05:57:00,65.1,25.3,-100.00,West,265,2.0,3.0,22,0.00,,,0.02,0.0,meteohub,2013-02-20 10:57:00,
2013-02-20 06:02:00,65.1,25.3,-100.00,West,273,1.0,5.0,22,0.00,,,0.02,0.0,meteohub,2013-02-20 11:02:00,
2013-02-20 06:07:00,65.1,25.3,-100.00,West,275,3.0,5.0,22,0.00,,,0.02,0.0,meteohub,2013-02-20 11:07:00,
2013-02-20 06:12:00,64.9,25.2,-100.00,West,275,0.0,5.0,22,0.00,,,0.02,0.0,meteohub,2013-02-20 11:12:00,
2013-02-20 06:17:00,64.9,25.2,-100.00,West,275,0.0,5.0,22,0.00,,,0.02,0.0,meteohub,2013-02-20 11:17:00,
2013-02-20 06:22:00,64.9,25.2,-100.00,West,275,0.0,5.0,22,0.00,,,0.02,0.0,meteohub,2013-02-20 11:22:00,
2013-02-20 06:27:00,64.8,25.0,-100.00,West,275,0.0,3.0,22,0.00,,,0.02,0.0,meteohub,2013-02-20 11:27:00,
2013-02-20 06:32:00,64.8,25.0,-100.00,West,275,2.0,3.0,22,0.00,,,0.02,0.0,meteohub,2013-02-20 11:32:00,
2013-02-20 06:37:00,64.4,24.8,-100.00,West,275,0.0,3.0,22,0.00,,,0.02,0.0,meteohub,2013-02-20 11:37:00,
2013-02-20 06:42:00,64.0,24.4,-100.00,West,275,0.0,3.0,22,0.00,,,0.02,0.0,meteohub,2013-02-20 11:42:00,
2013-02-20 06:47:00,63.9,24.3,-100.00,West,275,0.0,3.0,22,0.00,,,0.02,0.0,meteohub,2013-02-20 11:47:00,
2013-02-20 06:52:00,63.9,25.3,-100.00,West,275,0.0,3.0,23,0.00,,,0.02,5.0,meteohub,2013-02-20 11:52:00,
2013-02-20 06:57:00,63.7,25.2,-100.00,West,275,0.0,3.0,23,0.00,,,0.02,11.0,meteohub,2013-02-20 11:57:00,
2013-02-20 07:02:00,63.7,25.2,-100.00,West,275,1.0,2.0,23,0.00,,,0.02,14.0,meteohub,2013-02-20 12:02:00,
2013-02-20 07:07:00,63.5,25.0,-100.00,West,275,0.0,2.0,23,0.00,,,0.02,19.0,meteohub,2013-02-20 12:07:00,
2013-02-20 07:12:00,63.3,24.8,-100.00,West,275,0.0,2.0,23,0.00,,,0.02,23.0,meteohub,2013-02-20 12:12:00,
2013-02-20 07:17:00,63.3,24.8,-100.00,West,275,0.0,2.0,23,0.00,,,0.02,28.0,meteohub,2013-02-20 12:17:00,
2013-02-20 07:22:00,63.5,25.0,-100.00,West,275,0.0,2.0,23,0.00,,,0.02,56.0,meteohub,2013-02-20 12:22:00,
2013-02-20 07:27:00,63.7,25.2,-100.00,West,275,1.0,1.0,23,0.00,,,0.02,72.0,meteohub,2013-02-20 12:27:00,
2013-02-20 07:32:00,63.9,25.3,-100.00,West,275,2.0,2.0,23,0.00,,,0.02,88.0,meteohub,2013-02-20 12:32:00,
2013-02-20 07:37:00,64.0,25.5,-100.00,West,275,2.0,2.0,23,0.00,,,0.02,60.0,meteohub,2013-02-20 12:37:00,
2013-02-20 07:42:00,64.2,25.7,-100.00,West,275,1.0,1.0,23,0.00,,,0.02,128.0,meteohub,2013-02-20 12:42:00,
2013-02-20 07:47:00,64.6,24.8,-100.00,West,275,2.0,2.0,22,0.00,,,0.02,146.0,meteohub,2013-02-20 12:47:00,
2013-02-20 07:52:00,64.9,25.2,-100.00,West,275,4.0,4.0,22,0.00,,,0.02,165.0,meteohub,2013-02-20 12:52:00,
2013-02-20 07:57:00,65.3,25.5,-100.00,WNW,297,5.0,5.0,22,0.00,,,0.02,179.0,meteohub,2013-02-20 12:57:00,
2013-02-20 08:02:00,65.7,25.7,-100.00,WNW,296,3.0,6.0,22,0.00,,,0.02,162.0,meteohub,2013-02-20 13:02:00,
2013-02-20 08:07:00,66.2,26.2,-100.00,WNW,302,5.0,6.0,22,0.00,,,0.02,220.0,meteohub,2013-02-20 13:07:00,
2013-02-20 08:12:00,66.7,26.6,-100.00,WNW,302,2.0,6.0,22,0.00,,,0.02,239.0,meteohub,2013-02-20 13:12:00,
2013-02-20 08:17:00,67.3,27.1,-100.00,NW,313,7.0,7.0,22,0.00,,,0.02,262.0,meteohub,2013-02-20 13:17:00,
2013-02-20 08:22:00,67.6,26.2,-100.00,NW,323,0.0,5.0,21,0.00,,,0.02,287.0,meteohub,2013-02-20 13:22:00,
2013-02-20 08:27:00,68.2,26.8,-100.00,NW,324,3.0,5.0,21,0.00,,,0.02,323.0,meteohub,2013-02-20 13:27:00,
2013-02-20 08:32:00,68.7,27.1,-100.00,NW,324,0.0,7.0,21,0.00,,,0.02,302.0,meteohub,2013-02-20 13:32:00,
2013-02-20 08:37:00,69.4,27.9,-100.00,NW,325,0.0,7.0,21,0.00,,,0.02,367.0,meteohub,2013-02-20 13:37:00,
2013-02-20 08:42:00,70.0,27.1,-100.00,NW,325,3.0,7.0,20,0.00,,,0.02,322.0,meteohub,2013-02-20 13:42:00,
2013-02-20 08:47:00,70.7,27.7,-100.00,NW,325,3.0,7.0,20,0.00,,,0.02,332.0,meteohub,2013-02-20 13:47:00,
2013-02-20 08:52:00,71.2,28.0,-100.00,NW,325,0.0,5.0,20,0.00,,,0.02,397.0,meteohub,2013-02-20 13:52:00,
2013-02-20 08:57:00,71.6,29.7,-100.00,NW,325,0.0,5.0,21,0.00,,,0.02,406.0,meteohub,2013-02-20 13:57:00,
2013-02-20 09:02:00,72.1,30.0,-100.00,NW,325,0.0,5.0,21,0.00,,,0.02,443.0,meteohub,2013-02-20 14:02:00,
2013-02-20 09:07:00,72.5,31.5,-100.00,NW,325,0.0,5.0,22,0.00,,,0.02,461.0,meteohub,2013-02-20 14:07:00,
2013-02-20 09:12:00,73.0,32.0,-100.00,NW,325,2.0,5.0,22,0.00,,,0.02,478.0,meteohub,2013-02-20 14:12:00,
2013-02-20 09:17:00,73.6,33.4,-100.00,NW,325,5.0,5.0,23,0.00,,,0.02,490.0,meteohub,2013-02-20 14:17:00,
2013-02-20 09:22:00,73.4,37.4,-100.00,NW,325,1.0,6.0,27,0.00,,,0.02,508.0,meteohub,2013-02-20 14:22:00,
2013-02-20 09:27:00,73.6,39.4,-100.00,NW,325,3.0,6.0,29,0.00,,,0.02,526.0,meteohub,2013-02-20 14:27:00,
2013-02-20 09:32:00,73.2,43.2,-100.00,NW,326,4.0,6.0,34,0.00,,,0.02,554.0,meteohub,2013-02-20 14:32:00,
2013-02-20 09:37:00,73.2,44.6,-100.00,NNE,13,3.0,6.0,36,0.00,,,0.02,568.0,meteohub,2013-02-20 14:37:00,
2013-02-20 09:42:00,73.2,46.0,-100.00,NNW,345,5.0,6.0,38,0.00,,,0.02,599.0,meteohub,2013-02-20 14:42:00,
2013-02-20 09:47:00,73.4,48.9,-100.00,NNW,339,6.0,6.0,42,0.00,,,0.02,621.0,meteohub,2013-02-20 14:47:00,
2013-02-20 09:52:00,73.6,49.1,-100.00,NNW,340,3.0,6.0,42,0.00,,,0.02,350.0,meteohub,2013-02-20 14:52:00,
2013-02-20 09:57:00,73.4,48.9,-100.00,NE,41,4.0,10.0,42,0.00,,,0.02,610.0,meteohub,2013-02-20 14:57:00,
2013-02-20 10:02:00,73.4,49.5,-100.00,North,355,4.0,10.0,43,0.00,,,0.02,513.0,meteohub,2013-02-20 15:02:00,
2013-02-20 10:07:00,73.6,49.6,-100.00,North,5,3.0,10.0,43,0.00,,,0.02,506.0,meteohub,2013-02-20 15:07:00,
2013-02-20 10:12:00,73.9,50.7,-100.00,North,355,2.0,10.0,44,0.00,,,0.02,703.0,meteohub,2013-02-20 15:12:00,
2013-02-20 10:17:00,74.7,52.0,-100.00,NW,318,3.0,8.0,45,0.00,,,0.02,698.0,meteohub,2013-02-20 15:17:00,
2013-02-20 10:22:00,74.8,52.7,-100.00,NNW,342,5.0,8.0,46,0.00,,,0.02,714.0,meteohub,2013-02-20 15:22:00,
2013-02-20 10:27:00,74.8,52.7,-100.00,NW,314,4.0,8.0,46,0.00,,,0.02,724.0,meteohub,2013-02-20 15:27:00,
2013-02-20 10:32:00,74.7,52.5,-100.00,NW,315,6.0,9.0,46,0.00,,,0.02,754.0,meteohub,2013-02-20 15:32:00,
2013-02-20 10:42:00,74.8,51.4,-100.00,NNW,344,3.0,9.0,44,0.00,,,0.02,744.0,meteohub,2013-02-20 15:42:00,
2013-02-20 10:47:00,75.0,51.6,-100.00,NW,325,4.0,9.0,44,0.00,,,0.02,751.0,meteohub,2013-02-20 15:47:00,
2013-02-20 10:52:00,75.0,51.1,-100.00,NW,321,5.0,7.0,43,0.00,,,0.02,759.0,meteohub,2013-02-20 15:52:00,
2013-02-20 11:02:00,74.7,48.7,-100.00,NNW,339,5.0,11.0,40,0.00,,,0.02,752.0,meteohub,2013-02-20 16:02:00,
2013-02-20 11:07:00,74.8,48.2,-100.00,NNW,334,4.0,11.0,39,0.00,,,0.02,826.0,meteohub,2013-02-20 16:07:00,
2013-02-20 11:12:00,74.8,46.8,-100.00,NNW,336,6.0,11.0,37,0.00,,,0.02,796.0,meteohub,2013-02-20 16:12:00,
2013-02-20 11:17:00,75.0,46.9,-100.00,North,5,9.0,11.0,37,0.00,,,0.02,828.0,meteohub,2013-02-20 16:17:00,
2013-02-20 11:22:00,75.4,47.3,-100.00,NNW,327,3.0,12.0,37,0.00,,,0.02,824.0,meteohub,2013-02-20 16:22:00,
2013-02-20 11:27:00,75.7,48.4,-100.00,NNW,334,5.0,12.0,38,0.00,,,0.02,840.0,meteohub,2013-02-20 16:27:00,
2013-02-20 11:32:00,75.7,49.6,-100.00,North,0,3.0,12.0,40,0.00,,,0.02,837.0,meteohub,2013-02-20 16:32:00,
2013-02-20 11:37:00,75.6,48.2,-100.00,NNW,336,3.0,9.0,38,0.00,,,0.02,851.0,meteohub,2013-02-20 16:37:00,
2013-02-20 11:42:00,75.9,49.1,-100.00,West,268,4.0,9.0,39,0.00,,,0.02,840.0,meteohub,2013-02-20 16:42:00,
2013-02-20 11:47:00,76.1,49.3,-100.00,NW,325,3.0,9.0,39,0.00,,,0.02,847.0,meteohub,2013-02-20 16:47:00,
2013-02-20 11:52:00,76.5,50.4,-100.00,NNW,342,5.0,9.0,40,0.00,,,0.02,858.0,meteohub,2013-02-20 16:52:00,
2013-02-20 11:57:00,76.6,50.5,-100.00,North,9,3.0,9.0,40,0.00,,,0.02,865.0,meteohub,2013-02-20 16:57:00,
2013-02-20 12:02:00,77.4,51.8,-100.00,NW,313,5.0,9.0,41,0.00,,,0.02,854.0,meteohub,2013-02-20 17:02:00,
2013-02-20 12:07:00,77.7,53.4,-100.00,NNW,345,5.0,9.0,43,0.00,,,0.02,863.0,meteohub,2013-02-20 17:07:00,
2013-02-20 12:17:00,77.7,53.4,-100.00,NW,313,4.0,9.0,43,0.00,,,0.02,860.0,meteohub,2013-02-20 17:17:00,
2013-02-20 12:22:00,77.7,53.4,-100.00,NW,321,2.0,9.0,43,0.00,,,0.02,872.0,meteohub,2013-02-20 17:22:00,
2013-02-20 12:27:00,77.9,54.9,-100.00,North,350,4.0,9.0,45,0.00,,,0.02,933.0,meteohub,2013-02-20 17:27:00,
2013-02-20 12:32:00,77.4,52.5,-100.00,NNW,335,3.0,9.0,42,0.00,,,0.02,900.0,meteohub,2013-02-20 17:32:00,
2013-02-20 12:37:00,77.4,51.8,-100.00,NNW,344,5.0,7.0,41,0.00,,,0.02,888.0,meteohub,2013-02-20 17:37:00,
2013-02-20 12:42:00,78.1,54.3,-100.00,NNE,17,2.0,7.0,44,0.00,,,0.02,881.0,meteohub,2013-02-20 17:42:00,
2013-02-20 12:47:00,78.4,54.7,-100.00,NNW,346,6.0,7.0,44,0.00,,,0.02,846.0,meteohub,2013-02-20 17:47:00,
2013-02-20 12:52:00,78.6,55.6,-100.00,North,355,4.0,7.0,45,0.00,,,0.02,970.0,meteohub,2013-02-20 17:52:00,
2013-02-20 12:57:00,79.0,55.8,-100.00,NNW,330,3.0,7.0,45,0.00,,,0.02,905.0,meteohub,2013-02-20 17:57:00,
2013-02-20 13:02:00,79.3,57.4,-100.00,North,0,2.0,7.0,47,0.00,,,0.02,872.0,meteohub,2013-02-20 18:02:00,
2013-02-20 13:07:00,79.2,56.7,-100.00,NNW,340,2.0,7.0,46,0.00,,,0.02,870.0,meteohub,2013-02-20 18:07:00,
2013-02-20 13:17:00,79.9,58.5,-100.00,WNW,302,5.0,10.0,48,0.00,,,0.02,888.0,meteohub,2013-02-20 18:17:00,
2013-02-20 13:22:00,80.1,58.6,-100.00,NW,323,4.0,10.0,48,0.00,,,0.02,886.0,meteohub,2013-02-20 18:22:00,
2013-02-20 13:27:00,80.1,59.2,-100.00,North,0,2.0,10.0,49,0.00,,,0.02,895.0,meteohub,2013-02-20 18:27:00,
2013-02-20 13:32:00,79.9,59.5,-100.00,West,265,3.0,9.0,50,0.00,,,0.02,879.0,meteohub,2013-02-20 18:32:00,
2013-02-20 13:42:00,79.2,58.3,-100.00,West,262,4.0,9.0,49,0.00,,,0.02,281.0,meteohub,2013-02-20 18:42:00,
2013-02-20 13:47:00,78.6,57.2,-100.00,NE,50,3.0,9.0,48,0.00,,,0.02,281.0,meteohub,2013-02-20 18:47:00,
2013-02-20 13:52:00,79.3,57.9,-100.00,WNW,298,2.0,9.0,48,0.00,,,0.02,858.0,meteohub,2013-02-20 18:52:00,
2013-02-20 13:57:00,79.9,59.0,-100.00,WSW,250,0.0,9.0,49,0.00,,,0.02,802.0,meteohub,2013-02-20 18:57:00,
2013-02-20 14:02:00,80.1,58.6,-100.00,NW,315,4.0,6.0,48,0.00,,,0.02,803.0,meteohub,2013-02-20 19:02:00,
2013-02-20 14:07:00,80.1,58.6,-100.00,WSW,251,1.0,6.0,48,0.00,,,0.02,802.0,meteohub,2013-02-20 19:07:00,
2013-02-20 14:12:00,79.3,58.5,-100.00,SSE,159,3.0,6.0,49,0.00,,,0.02,656.0,meteohub,2013-02-20 19:12:00,
2013-02-20 14:17:00,78.6,56.1,-100.00,WSW,237,2.0,7.0,46,0.00,,,0.02,520.0,meteohub,2013-02-20 19:17:00,
2013-02-20 14:22:00,78.1,55.0,-100.00,South,181,0.0,7.0,45,0.00,,,0.02,438.0,meteohub,2013-02-20 19:22:00,
2013-02-20 14:27:00,77.5,54.5,-100.00,SSW,195,4.0,7.0,45,0.00,,,0.02,466.0,meteohub,2013-02-20 19:27:00,
2013-02-20 14:32:00,76.5,51.1,-100.00,SSE,149,1.0,7.0,41,0.00,,,0.02,346.0,meteohub,2013-02-20 19:32:00,
2013-02-20 14:37:00,75.9,49.8,-100.00,South,172,5.0,7.0,40,0.00,,,0.02,673.0,meteohub,2013-02-20 19:37:00,
2013-02-20 14:42:00,76.3,49.5,-100.00,SSW,210,7.0,7.0,39,0.00,,,0.02,578.0,meteohub,2013-02-20 19:42:00,
2013-02-20 14:47:00,76.6,51.3,-100.00,South,178,5.0,7.0,41,0.00,,,0.02,686.0,meteohub,2013-02-20 19:47:00,
2013-02-20 14:52:00,76.5,51.1,-100.00,SSW,205,3.0,11.0,41,0.00,,,0.02,631.0,meteohub,2013-02-20 19:52:00,
2013-02-20 14:57:00,76.3,50.2,-100.00,SSW,194,2.0,11.0,40,0.00,,,0.02,671.0,meteohub,2013-02-20 19:57:00,
2013-02-20 15:02:00,76.8,50.7,-100.00,South,179,3.0,11.0,40,0.00,,,0.02,552.0,meteohub,2013-02-20 20:02:00,
2013-02-20 15:07:00,77.2,52.3,-100.00,WSW,240,4.0,11.0,42,0.00,,,0.02,461.0,meteohub,2013-02-20 20:07:00,
2013-02-20 15:12:00,77.0,52.2,-100.00,ESE,115,3.0,11.0,42,0.00,,,0.02,591.0,meteohub,2013-02-20 20:12:00,
2013-02-20 15:17:00,76.8,52.0,-100.00,SW,222,2.0,10.0,42,0.00,,,0.02,584.0,meteohub,2013-02-20 20:17:00,
2013-02-20 15:27:00,77.5,52.7,-100.00,South,187,5.0,10.0,42,0.00,,,0.02,512.0,meteohub,2013-02-20 20:27:00,
2013-02-20 15:32:00,77.5,54.5,-100.00,SSW,209,5.0,7.0,45,0.00,,,0.02,497.0,meteohub,2013-02-20 20:32:00,
2013-02-20 15:37:00,76.8,52.7,-100.00,South,180,8.0,8.0,43,0.00,,,0.02,534.0,meteohub,2013-02-20 20:37:00,
2013-02-20 15:42:00,77.0,53.4,-100.00,SSE,168,4.0,7.0,44,0.00,,,0.02,529.0,meteohub,2013-02-20 20:42:00,
2013-02-20 15:47:00,76.8,52.7,-100.00,WNW,298,4.0,7.0,43,0.00,,,0.02,513.0,meteohub,2013-02-20 20:47:00,
2013-02-20 15:52:00,77.2,53.6,-100.00,South,180,6.0,12.0,44,0.00,,,0.02,471.0,meteohub,2013-02-20 20:52:00,
2013-02-20 15:57:00,76.8,52.7,-100.00,SSW,196,3.0,12.0,43,0.00,,,0.02,469.0,meteohub,2013-02-20 20:57:00,
2013-02-20 16:02:00,76.5,51.6,-100.00,NW,321,0.0,12.0,42,0.00,,,0.02,476.0,meteohub,2013-02-20 21:02:00,
2013-02-20 16:07:00,75.9,51.3,-100.00,SSE,167,1.0,12.0,42,0.00,,,0.02,114.0,meteohub,2013-02-20 21:07:00,
2013-02-20 16:12:00,75.9,51.3,-100.00,SSE,164,4.0,12.0,42,0.00,,,0.02,446.0,meteohub,2013-02-20 21:12:00,
2013-02-20 16:17:00,75.9,51.3,-100.00,South,184,6.0,7.0,42,0.00,,,0.02,206.0,meteohub,2013-02-20 21:17:00,
2013-02-20 16:22:00,75.7,51.6,-100.00,South,186,6.0,7.0,43,0.00,,,0.02,118.0,meteohub,2013-02-20 21:22:00,
2013-02-20 16:27:00,75.4,52.5,-100.00,SSW,192,3.0,7.0,45,0.00,,,0.02,105.0,meteohub,2013-02-20 21:27:00,
2013-02-20 16:32:00,74.7,48.7,-100.00,South,173,4.0,10.0,40,0.00,,,0.02,105.0,meteohub,2013-02-20 21:32:00,
2013-02-20 16:37:00,74.7,47.3,-100.00,South,169,1.0,10.0,38,0.00,,,0.02,142.0,meteohub,2013-02-20 21:37:00,
2013-02-20 16:42:00,74.7,45.9,-100.00,South,186,5.0,10.0,36,0.00,,,0.02,236.0,meteohub,2013-02-20 21:42:00,
2013-02-20 16:47:00,74.8,48.2,-100.00,South,179,5.0,10.0,39,0.00,,,0.02,276.0,meteohub,2013-02-20 21:47:00,
2013-02-20 16:52:00,75.4,48.7,-100.00,South,185,2.0,9.0,39,0.00,,,0.02,84.0,meteohub,2013-02-20 21:52:00,
2013-02-20 17:02:00,74.8,48.9,-100.00,SE,144,2.0,9.0,40,0.00,,,0.02,207.0,meteohub,2013-02-20 22:02:00,
2013-02-20 17:07:00,74.8,49.6,-100.00,South,176,2.0,9.0,41,0.00,,,0.02,128.0,meteohub,2013-02-20 22:07:00,
2013-02-20 17:12:00,74.5,49.3,-100.00,South,173,8.0,9.0,41,0.00,,,0.02,167.0,meteohub,2013-02-20 22:12:00,
2013-02-20 17:17:00,74.5,48.6,-100.00,South,184,0.0,9.0,40,0.00,,,0.02,144.0,meteohub,2013-02-20 22:17:00,
2013-02-20 17:22:00,74.7,49.5,-100.00,SSE,149,3.0,11.0,41,0.00,,,0.02,118.0,meteohub,2013-02-20 22:22:00,
2013-02-20 17:27:00,74.7,50.7,-100.00,South,179,4.0,11.0,43,0.00,,,0.02,49.0,meteohub,2013-02-20 22:27:00,
2013-02-20 17:32:00,74.3,50.4,-100.00,SSW,207,2.0,11.0,43,0.00,,,0.02,65.0,meteohub,2013-02-20 22:32:00,
2013-02-20 17:37:00,74.1,50.2,-100.00,SE,142,5.0,11.0,43,0.00,,,0.02,72.0,meteohub,2013-02-20 22:37:00,
2013-02-20 17:42:00,74.1,50.2,-100.00,South,183,4.0,7.0,43,0.00,,,0.02,62.0,meteohub,2013-02-20 22:42:00,
2013-02-20 17:52:00,73.8,49.8,-100.00,SSE,167,4.0,7.0,43,0.00,,,0.02,32.0,meteohub,2013-02-20 22:52:00,
2013-02-20 17:57:00,73.6,49.6,-100.00,South,171,3.0,7.0,43,0.00,,,0.02,26.0,meteohub,2013-02-20 22:57:00,
2013-02-20 18:02:00,73.8,47.3,-100.00,SSE,163,3.0,7.0,39,0.00,,,0.02,19.0,meteohub,2013-02-20 23:02:00,
2013-02-20 18:07:00,73.9,44.6,-100.00,ESE,121,3.0,7.0,35,0.00,,,0.02,11.0,meteohub,2013-02-20 23:07:00,
2013-02-20 18:12:00,73.8,42.8,-100.00,SSE,157,1.0,7.0,33,0.00,,,0.02,7.0,meteohub,2013-02-20 23:12:00,
2013-02-20 18:17:00,73.6,41.0,-100.00,South,177,5.0,7.0,31,0.00,,,0.02,0.0,meteohub,2013-02-20 23:17:00,
2013-02-20 18:22:00,73.8,39.6,-100.00,South,176,0.0,7.0,29,0.00,,,0.02,0.0,meteohub,2013-02-20 23:22:00,
2013-02-20 18:27:00,73.6,37.6,-100.00,South,173,4.0,7.0,27,0.00,,,0.02,0.0,meteohub,2013-02-20 23:27:00,
2013-02-20 18:32:00,73.2,36.3,-100.00,SSW,194,3.0,7.0,26,0.00,,,0.02,0.0,meteohub,2013-02-20 23:32:00,
2013-02-20 18:37:00,73.2,35.2,-100.00,South,190,0.0,9.0,25,0.00,,,0.02,0.0,meteohub,2013-02-20 23:37:00,
2013-02-20 18:42:00,73.4,34.3,-100.00,SSW,200,0.0,9.0,24,0.00,,,0.02,0.0,meteohub,2013-02-20 23:42:00,
2013-02-20 18:47:00,73.2,34.3,-100.00,SSW,200,1.0,9.0,24,0.00,,,0.02,0.0,meteohub,2013-02-20 23:47:00,
2013-02-20 18:52:00,73.0,34.2,-100.00,South,191,3.0,9.0,24,0.00,,,0.02,0.0,meteohub,2013-02-20 23:52:00,
2013-02-20 18:57:00,72.9,35.1,-100.00,South,188,0.0,9.0,25,0.00,,,0.02,0.0,meteohub,2013-02-20 23:57:00,
2013-02-20 19:02:00,72.9,35.1,-100.00,South,189,0.0,5.0,25,0.00,,,0.02,0.0,meteohub,2013-02-21 00:02:00,
2013-02-20 19:07:00,72.9,35.1,-100.00,South,191,0.0,5.0,25,0.00,,,0.02,0.0,meteohub,2013-02-21 00:07:00,
2013-02-20 19:12:00,72.9,35.1,-100.00,South,188,0.0,5.0,25,0.00,,,0.00,0.0,meteohub,2013-02-21 00:12:00,
2013-02-20 19:17:00,72.9,35.1,-100.00,South,184,2.0,5.0,25,0.00,,,0.00,0.0,meteohub,2013-02-21 00:17:00,
2013-02-20 19:22:00,73.0,34.2,-100.00,SSW,193,0.0,5.0,24,0.00,,,0.00,0.0,meteohub,2013-02-21 00:22:00,
2013-02-20 19:27:00,72.9,34.0,-100.00,SSW,193,2.0,5.0,24,0.00,,,0.00,0.0,meteohub,2013-02-21 00:27:00,
2013-02-20 19:32:00,72.7,32.7,-100.00,SSW,192,0.0,6.0,23,0.00,,,0.00,0.0,meteohub,2013-02-21 00:32:00,
2013-02-20 19:37:00,72.3,32.4,-100.00,SSW,192,0.0,6.0,23,0.00,,,0.00,0.0,meteohub,2013-02-21 00:37:00,
2013-02-20 19:42:00,72.3,32.4,-100.00,SSW,192,0.0,6.0,23,0.00,,,0.00,0.0,meteohub,2013-02-21 00:42:00,
2013-02-20 19:47:00,72.1,31.1,-100.00,South,191,0.0,6.0,22,0.00,,,0.00,0.0,meteohub,2013-02-21 00:47:00,
2013-02-20 19:52:00,72.1,31.1,-100.00,South,191,0.0,2.0,22,0.00,,,0.00,0.0,meteohub,2013-02-21 00:52:00,
2013-02-20 19:57:00,72.1,31.1,-100.00,South,190,0.0,2.0,22,0.00,,,0.00,0.0,meteohub,2013-02-21 00:57:00,
2013-02-20 20:02:00,72.1,31.1,-100.00,South,190,3.0,4.0,22,0.00,,,0.00,0.0,meteohub,2013-02-21 01:02:00,
2013-02-20 20:07:00,72.1,31.1,-100.00,South,190,1.0,4.0,22,0.00,,,0.00,0.0,meteohub,2013-02-21 01:07:00,
2013-02-20 20:12:00,72.1,31.1,-100.00,South,190,3.0,4.0,22,0.00,,,0.00,0.0,meteohub,2013-02-21 01:12:00,
2013-02-20 20:17:00,72.1,31.1,-100.00,South,183,0.0,4.0,22,0.00,,,0.00,0.0,meteohub,2013-02-21 01:17:00,
2013-02-20 20:22:00,72.1,31.1,-100.00,South,182,0.0,5.0,22,0.00,,,0.00,0.0,meteohub,2013-02-21 01:22:00,
2013-02-20 20:27:00,72.1,31.1,-100.00,South,187,0.0,5.0,22,0.00,,,0.00,0.0,meteohub,2013-02-21 01:27:00,
2013-02-20 20:32:00,72.0,31.1,-100.00,South,187,3.0,5.0,22,0.00,,,0.00,0.0,meteohub,2013-02-21 01:32:00,
2013-02-20 20:37:00,72.0,31.1,-100.00,South,187,0.0,5.0,22,0.00,,,0.00,0.0,meteohub,2013-02-21 01:37:00,
2013-02-20 20:42:00,72.0,29.8,-100.00,South,186,0.0,5.0,21,0.00,,,0.00,0.0,meteohub,2013-02-21 01:42:00,
2013-02-20 20:47:00,72.0,29.8,-100.00,South,186,0.0,5.0,21,0.00,,,0.00,0.0,meteohub,2013-02-21 01:47:00,
2013-02-20 20:57:00,72.0,29.8,-100.00,South,185,0.0,3.0,21,0.00,,,0.00,0.0,meteohub,2013-02-21 01:57:00,
2013-02-20 21:02:00,72.0,31.1,-100.00,South,184,0.0,3.0,22,0.00,,,0.00,0.0,meteohub,2013-02-21 02:02:00,
2013-02-20 21:07:00,72.0,31.1,-100.00,South,184,0.0,3.0,22,0.00,,,0.00,0.0,meteohub,2013-02-21 02:07:00,
2013-02-20 21:12:00,71.8,30.9,-100.00,South,184,0.0,3.0,22,0.00,,,0.00,0.0,meteohub,2013-02-21 02:12:00,
2013-02-20 21:17:00,71.8,30.9,-100.00,South,184,0.0,2.0,22,0.00,,,0.00,0.0,meteohub,2013-02-21 02:17:00,
2013-02-20 21:22:00,71.8,30.9,-100.00,South,184,0.0,2.0,22,0.00,,,0.00,0.0,meteohub,2013-02-21 02:22:00,
2013-02-20 21:32:00,71.4,30.6,-100.00,South,184,0.0,1.0,22,0.00,,,0.00,0.0,meteohub,2013-02-21 02:32:00,
2013-02-20 21:37:00,71.2,30.4,-100.00,South,184,0.0,1.0,22,0.00,,,0.00,0.0,meteohub,2013-02-21 02:37:00,
2013-02-20 21:42:00,71.1,30.2,-100.00,South,184,0.0,1.0,22,0.00,,,0.00,0.0,meteohub,2013-02-21 02:42:00,
2013-02-20 21:47:00,71.1,30.2,-100.00,South,184,0.0,1.0,22,0.00,,,0.00,0.0,meteohub,2013-02-21 02:47:00,
2013-02-20 21:52:00,71.1,30.2,-100.00,South,184,0.0,0.0,22,0.00,,,0.00,0.0,meteohub,2013-02-21 02:52:00,
2013-02-20 21:57:00,71.1,30.2,-100.00,South,184,0.0,0.0,22,0.00,,,0.00,0.0,meteohub,2013-02-21 02:57:00,
2013-02-20 22:02:00,71.2,30.4,-100.00,South,184,0.0,0.0,22,0.00,,,0.00,0.0,meteohub,2013-02-21 03:02:00,
2013-02-20 22:07:00,71.2,30.4,-100.00,South,184,0.0,0.0,22,0.00,,,0.00,0.0,meteohub,2013-02-21 03:07:00,
2013-02-20 22:12:00,71.2,31.5,-100.00,South,184,0.0,0.0,23,0.00,,,0.00,0.0,meteohub,2013-02-21 03:12:00,
2013-02-20 22:17:00,71.2,31.5,-100.00,South,184,0.0,0.0,23,0.00,,,0.00,0.0,meteohub,2013-02-21 03:17:00,
2013-02-20 22:22:00,71.2,31.5,-100.00,South,184,0.0,0.0,23,0.00,,,0.00,0.0,meteohub,2013-02-21 03:22:00,
2013-02-20 22:27:00,71.2,31.5,-100.00,South,184,0.0,0.0,23,0.00,,,0.00,0.0,meteohub,2013-02-21 03:27:00,
2013-02-20 22:32:00,71.2,31.5,-100.00,South,184,0.0,0.0,23,0.00,,,0.00,0.0,meteohub,2013-02-21 03:32:00,
2013-02-20 22:37:00,71.2,31.5,-100.00,South,184,0.0,0.0,23,0.00,,,0.00,0.0,meteohub,2013-02-21 03:37:00,
2013-02-20 22:42:00,71.2,31.5,-100.00,South,184,0.0,2.0,23,0.00,,,0.00,0.0,meteohub,2013-02-21 03:42:00,
2013-02-20 22:47:00,71.2,31.5,-100.00,South,184,0.0,2.0,23,0.00,,,0.00,0.0,meteohub,2013-02-21 03:47:00,
2013-02-20 22:52:00,71.2,31.5,-100.00,South,184,0.0,2.0,23,0.00,,,0.00,0.0,meteohub,2013-02-21 03:52:00,
2013-02-20 22:58:00,71.2,31.5,-100.00,South,184,0.0,2.0,23,0.00,,,0.00,0.0,meteohub,2013-02-21 03:58:00,
2013-02-20 23:07:00,71.1,31.5,-100.00,South,184,0.0,2.0,23,0.00,,,0.00,0.0,meteohub,2013-02-21 04:07:00,
2013-02-20 23:12:00,71.2,31.5,-100.00,South,184,0.0,2.0,23,0.00,,,0.00,0.0,meteohub,2013-02-21 04:12:00,
2013-02-20 23:17:00,71.2,32.5,-100.00,South,184,0.0,2.0,24,0.00,,,0.00,0.0,meteohub,2013-02-21 04:17:00,
2013-02-20 23:22:00,71.2,32.5,-100.00,South,184,1.0,1.0,24,0.00,,,0.00,0.0,meteohub,2013-02-21 04:22:00,
2013-02-20 23:27:00,71.2,32.5,-100.00,South,184,0.0,1.0,24,0.00,,,0.00,0.0,meteohub,2013-02-21 04:27:00,
2013-02-20 23:32:00,71.2,32.5,-100.00,South,182,0.0,1.0,24,0.00,,,0.00,0.0,meteohub,2013-02-21 04:32:00,
2013-02-20 23:37:00,71.2,32.5,-100.00,South,179,4.0,4.0,24,0.00,,,0.00,0.0,meteohub,2013-02-21 04:37:00,
2013-02-20 23:42:00,71.2,32.5,-100.00,South,176,1.0,1.0,24,0.00,,,0.00,0.0,meteohub,2013-02-21 04:42:00,
2013-02-20 23:47:00,71.2,32.5,-100.00,South,175,0.0,1.0,24,0.00,,,0.00,0.0,meteohub,2013-02-21 04:47:00,
2013-02-20 23:52:00,71.4,33.8,-100.00,South,175,0.0,4.0,25,0.00,,,0.00,0.0,meteohub,2013-02-21 04:52:00,
2013-02-20 23:57:00,71.2,33.6,-100.00,South,175,0.0,4.0,25,0.00,,,0.00,0.0,meteohub,2013-02-21 04:57:00,